Location: Unspecified
(52.4292°N, 19.3359°E)
Time: 16:21:47
(UTC+01:00)

A-11 Canister half - Pass Details

Date: 14 October 2025
Orbit: 1526 x 1682 km, 47.3° (Epoch: 13 November)

Event Time Altitude Azimuth Distance (km) Brightness Sun altitude
Exits shadow 05:38:40 15° 246° (WSW) 3,276 10.1 -14.1°
Maximum altitude 05:46:25 63° 170° (S) 1,683 9.2 -12.9°
Drops below altitude 10° 05:55:36 10° 93° (E) 3,726 12.6 -11.5°
Sets 05:58:42 0° 90° (E) 4,725 13.8 -11.1°
